カタログに戻る

STARLINK-30442

運用中通信VLEO
NORAD 57868·PAYLOAD·🇺🇸 United States

打ち上げ Sep 16, 2023 から Cape Canaveral Space Force Station

Loading…

次のパス (今後24時間)

TLE

最新Source: CelesTrak SupGP

元期: Sep 15, 2026, 02:02 UTC

1 57868C 23144E   26258.08520833  .00035204  00000+0  12750-2 0  2588
2 57868  43.0024 295.5599 0001320 266.3822  69.7092 15.27563355    14

AllMySatでSTARLINK-30442をリアルタイム追跡

Download on the App Store